Regional Weather Roundup
Issued by NWS

Home | Current Version | Previous Version | Text Only | Print | Product List | Glossary Off
Versions: 1 2 3 4 5 6 7 8 9 10 11 12 13 14 15 16 17 18 19 20 21 22 23 24 25 26 27 28 29 30 31 32 33 34 35 36 37 38 39 40 41 42 43 44 45 46 47 48 49 50

000
ASUS43 KLOT 221512
RWRIL

ILLINOIS REGIONAL WEATHER ROUNDUP
NATIONAL WEATHER SERVICE CHICAGO/ROMEOVILLE IL
900 AM CST WED FEB 22 2017

NOTE: "FAIR" INDICATES FEW OR NO CLOUDS BELOW 12,000 FEET WITH NO
SIGNIFICANT WEATHER AND/OR OBSTRUCTIONS TO VISIBILITY.

* THESE STATIONS ARE NOT UNDER NWS QUALITY CONTROL. THEY ALSO MAY NOT
  REPORT WEATHER SUCH AS PRECIPITATION OR FOG.

ILZ001-002-007-009-015-016-024-221600-
NORTHWEST ILLINOIS

CITY           SKY/WX    TMP DP  RH WIND       PRES   REMARKS
MOLINE         CLOUDY    48  48 100 S10       29.77R FOG
STERLING*      CLOUDY    54  54 100 VRB6      29.77S FOG
SAVANNA*       CLOUDY    53  53  99 S12       29.74S FOG
$$

ILZ003-004-008-010-011-017-018-221600-
NORTH CENTRAL ILLINOIS

CITY           SKY/WX    TMP DP  RH WIND       PRES   REMARKS
ROCKFORD       FOG       54  53  97 S15       29.77F VSB 1
FREEPORT*      CLOUDY    50  50  99 S13       29.76F FOG
ROCHELLE*      FOG       53  53 100 S12       29.79S VSB 1/2
DE KALB*       CLOUDY    54  54  99 SW13      29.79F FOG
PERU*          CLOUDY    54  53  96 SW12      29.80F FOG
$$

ILZ005-006-012>014-019>023-221600-
NORTHEAST ILLINOIS

CITY           SKY/WX    TMP DP  RH WIND       PRES   REMARKS
CHICAGO-OHARE  CLOUDY    54  52  93 SW9       29.78F FOG
CHICAGO-MIDWAY CLOUDY    53  52  96 W13       29.80R FOG
AURORA         FOG       55  54  96 SW8       29.80F VSB 3/4
LANSING*       CLOUDY    52  52 100 W9        29.81R FOG
JOLIET*        FOG       53  53 100 SW5       29.81S VSB 1/2
WAUKEGAN       CLOUDY    54  53  97 SW15G22   29.75F FOG
DUPAGE AIRPORT FOG       54  52  93 SW13      29.79F VSB 1
KANKAKEE*      FOG       51  50  98 CALM      29.82F VSB 1/4
WHEELING       CLOUDY    53  52  96 S9        29.79F FOG
MORRIS*        FOG       52  52  98 SW7       29.80S VSB 1/4
ROMEOVILLE*    FOG       52  52 100 SW7       29.81S VSB 1/4
NORTHERLY ISL    N/A     54  52  93 S9          N/A
$$

LMZ740>746-221600-
SOUTHERN LAKE MICHIGAN

STATION/POSITION SKY/WX   TEMP    WIND        PRES    VSBY  WAVE
                          AIR SEA DIR/SP/G                  HT/PER
                          (F)     (DEG/KT/KT) (MB)    (MI)  (FT/S)
HARRISON CRIB              53     240/  9/ 12   N/A
BURNHAM HARBOR             54     240/  6/ 13   N/A
CALUMET HARBOR             55     200/  9/ 12 1008.6R
BURNS HARBOR               53     190/ 12/ 15 1009.8F
MICHIGAN CITY              54     170/ 11/ 13   N/A
$$

ILZ025>027-034>036-040-047-049-050-058-095>099-221600-
WEST-CENTRAL ILLINOIS

CITY           SKY/WX    TMP DP  RH WIND       PRES   REMARKS
QUINCY         CLOUDY    55  55 100 SW13      29.81F FOG
GALESBURG*     FOG       53  53 100 S14       29.79F VSB 1/2
MACOMB*        FOG       55  55 100 SW12      29.83F VSB 1
JACKSONVILLE*  FOG       51  51 100 SW10      29.84R VSB 1/4
PITTSFIELD*    FOG       55  55 100 SW8       29.85S VSB 1/2
$$

ILZ028>032-037-038-041>044-048-051>054-059>061-221600-
CENTRAL ILLINOIS

CITY           SKY/WX    TMP DP  RH WIND       PRES   REMARKS
PONTIAC        FOG       52  51  97 SW7       29.83R VSB 1/4
BLOOMINGTON    FOG       52  52 100 S9        29.83S VSB 1/8
DECATUR        FOG       53  53 100 S9        29.84F VSB 1/2
PEORIA         FOG       53  53 100 SW8       29.82R VSB<1/4
LACON*         FOG       53  53 100 SW5       29.80F VSB 1
LINCOLN*       FOG       52  52 100 S6        29.83S VSB<1/4
SPRINGFIELD    FOG       54  53  97 S5        29.83S VSB 3/4
TAYLORVILLE    PTSUNNY   54  54 100 S8        29.84F FOG
$$

ILZ033-039-045-046-055>057-062-063-221600-
EAST-CENTRAL ILLINOIS

CITY           SKY/WX    TMP DP  RH WIND       PRES   REMARKS
CHAMPAIGN      FOG       52  51  97 S10       29.84F VSB 1/4
RANTOUL*       FOG       54  54  99 S7        29.84F VSB 1/4
MATTOON        FOG       53  53 100 S9        29.86F VSB 1/2
PARIS*         FOG       54  54 100 S8        29.87F VSB 3/4
$$

ILZ079-100>102-221600-
SOUTHWEST ILLINOIS

CITY           SKY/WX    TMP DP  RH WIND       PRES   REMARKS
ALTON          FOG       52  52 100 S12       29.86F VSB 1/8
BELLEVILLE     CLOUDY    55  55 100 CALM      29.85F FOG
CAHOKIA*       FOG       55  53  93 S5        29.86F VSB 3/4
SPARTA*        MOSUNNY   58  55  91 SW7       29.89F
$$

ILZ064>066-069>071-074>076-080>082-084>086-088>090-092>094-221600-
SOUTH-CENTRAL ILLINOIS

CITY           SKY/WX    TMP DP  RH WIND       PRES   REMARKS
CARBONDALE     MOSUNNY   60  57  89 S5        29.90F
CAIRO*         CLOUDY    59  58  96 N5        29.91S
EFFINGHAM*     CLOUDY    54  54 100 SE3       29.89F FOG
MARION         PTSUNNY   59  57  94 S6        29.91F
MT. VERNON     CLOUDY    55  55 100 CALM      29.89F FOG
CENTRALIA*     SUNNY     59  57  93 CALM      29.88F FOG
SALEM*         CLOUDY    58  57  95 S8        29.88F FOG
METROPOLIS*    CLOUDY    59  58  96 CALM      29.92S FOG
$$

ILZ067-068-072-073-078-083-087-091-221600-
SOUTHEAST ILLINOIS

CITY           SKY/WX    TMP DP  RH WIND       PRES   REMARKS
LAWRENCEVILLE  FOG       55  55 100 S5        29.91S VSB 1/2
FLORA*         FOG       56  55  98 S6        29.90F VSB 3/4
FAIRFIELD*     CLOUDY    55  55 100 CALM      29.89F FOG
HARRISBURG*    CLOUDY    55  55 100 CALM      29.92S FOG
ROBINSON*      CLOUDY    54  54 100 S7        29.91S FOG
CARMI*         FOG       56  56 100 S5        29.91F VSB 1/4
$$

ABBREVIATIONS USED IN REMARKS
   TC - TEMPERATURE IN CELSIUS
  WCI - WIND CHILL INDEX
   HX - HEAT INDEX
  VSB - VISIBILITY
$$




USA.gov is the U.S. government's official web portal to all federal, state and local government web resources and services.